Aeroporto :
LOGIN :

Iscrizione | Disclaimer

   EN    FR    IT 

 










Sommario :    VFR   VFR Marginale   IFR   IFR Intensivo   IFR Molto Intensivo
Visibilità : 
Base nubi : 
>= 8 km
>= 3000ft
5 / 8 km
1000 / 3000 ft
1500m / 5 km
500 / 1000 ft
800 / 1500m
200 / 500 ft
< 800m
< 200 ft
Simboli :   Temporali  Nebbia  Neve Forte  Precipitazioni Forti  Vento > 20 kt
SIGMETs :   Varie  Temporali  Ghiacco  Turbolenza  Onda orograficha  Ceneri Vulcaniche







- Altitudine del aeroporto : 55 ft
- Codice IATA : DSA
- Carte del aeroporto


EGCN - Robin Hood Doncaster Sheffield

ULTIMO METAR :
  • 241720Z 29010KT CAVOK 14/06 Q1038

METARs OBSOLETI :
  • 241650Z 30014KT CAVOK 14/06 Q1038
  • 241620Z 30014KT 9999 FEW041 14/06 Q1038
  • 241550Z 30013KT 9999 FEW038 15/06 Q1037
  • 241520Z 30014KT 9999 FEW041 15/06 Q1038
  • 241450Z 29011KT 9999 FEW042 16/06 Q1038

TAF TAF EGCN
Valido dal 24 a 18 ore il 25 a 18 ore UTC


241701Z 2418/2518 29006KT 9999 FEW035
PROB30 2503/2508 9000
BECMG 2509/2512 22010KT
Nessun NOTAM noto per questo aeroporto.



MetMap, La meteo Aeronautica in un colpo d'occhio ! - Copyright ORBIFLY Dicembre 2007 - Disclaimer

ORBIFLY MET'MAP TEAM :

Programmazione e sviluppo : Alexandra Zaïnal
Concezione e sviluppo : Baudouin d'Aumeries
Co-Programmazione e sviluppo : Marc-Olivier Méhu
Supporto tecnico e logistico : Manuel Goepfert
Aiuto per la traduzione : Arnaldo La Scala

Contatto : metmap@orbifly.com




FONTI E CREDITI :

   NOAA